Home > Time Zones > World Clock > Weather > India > Churu > Past weeks

Flag for India Weather past 2 weeks in Churu, Rajasthan, India

Now
79 °F

Fog.


Feels Like: 82 °F
Forecast: 83 / 94 °F
Wind: 7 mph from East

Location: Jaipur / Sanganer

Current Time: Jul 24, 2014 at 7:34:26 AM

Latest Report: Jul 24, 2014 at 7:00 AM


Visibility: 2 mi

Pressure: 29.53 "Hg

Humidity: 84%

Dew point: 73 °F

Location of ChuruLocation

Historic Weather in Churu — Graph

°F

Churu temperature yesterday

Maximum temperature yesterday: 93 °F (at 2:00 PM)
Minimum temperature yesterday: 84 °F (at 5:00 AM)
Average temperature yesterday: 87 °F

Past Weeks' High & Low Weather Summary

 TemperatureHumidityPressure
High108 °F (Jul 11, 4:00 PM)100% (Jul 17, 3:00 AM)29.62 "Hg (Jul 17, 3:00 AM)
Low75 °F (Jul 21, 1:00 AM)19% (Jul 10, 3:00 PM)29.42 "Hg (Jul 15, 6:00 PM)
Average90 °F57%29.52 "Hg
* Reported Jul 9 6:00 AM — Jul 24 6:00 AM, Churu, Weather by CustomWeather, © 2014

Note: Actual official high and low records may vary slightly from our data, if they occured in-between our weather recording intervals... More about our weather records

Advertising

Churu weather history for previous 24 hours

 ConditionsComfort  
Time TempWeatherWind HumidityBarometerVisibility
6:00 AM
Jul 24
79 °FFog.5 mph84%29.53 "Hg2 mi
5:00 AM79 °FFog.3 mph84%29.50 "Hg2 mi
4:00 AM81 °FFog.7 mph84%29.50 "Hg2 mi
2:00 AM81 °FPassing clouds.8 mph84%29.50 "Hg2 mi
12:00 AM84 °FPassing clouds.10 mph74%29.53 "Hg2 mi
11:00 PM
Jul 23
86 °FPassing clouds.10 mph70%29.53 "Hg2 mi
10:00 PM86 °FPassing clouds.7 mph66%29.53 "Hg2 mi
9:00 PM86 °FPassing clouds.9 mph66%29.53 "Hg2 mi
8:00 PMN/APassing clouds.6 mphN/A29.50 "Hg2 mi
6:00 PM90 °FScattered clouds.8 mph63%29.47 "Hg2 mi
3:00 PM91 °FBroken clouds.13 mph56%29.47 "Hg2 mi
2:00 PM93 °FBroken clouds.14 mph53%29.50 "Hg2 mi
1:00 PM91 °FBroken clouds.14 mph56%29.50 "Hg2 mi
11:00 AM88 °FBroken clouds.10 mph70%29.53 "Hg2 mi
10:00 AM86 °FFog.10 mph70%29.53 "Hg2 mi
9:00 AM84 °FFog.10 mph74%29.53 "Hg2 mi
8:00 AM84 °FFog.10 mph79%29.53 "Hg2 mi
7:00 AM84 °FFog.6 mph79%29.53 "Hg2 mi
Weather by CustomWeather, © 2014

See weather overviewHow to use our weather pages